Regional Weather Roundup
Issued by NWS

Home | Current Version | Previous Version | Graphics & Text | Print | Product List | Glossary On
Versions: 1 2 3 4 5 6 7 8 9 10 11 12 13 14 15 16 17 18 19 20 21 22 23 24 25 26 27
000
ASUS45 KBOI 211410
RWRID

IDAHO REGIONAL WEATHER ROUNDUP
NATIONAL WEATHER SERVICE BOISE ID
800 AM MDT SAT APR 21 2018

NOTE: "FAIR" INDICATES FEW OR NO CLOUDS BELOW 12000 FEET
WITH NO SIGNIFICANT WEATHER AND/OR OBSTRUCTIONS TO VISIBILITY

IDZ012-014-211500-
SOUTHWEST IDAHO


CITY           SKY/WX    TMP DP  RH WIND       PRES   REMARKS
BOISE          SUNNY     46  33  60 SE7       30.15R
CALDWELL       SUNNY     40  33  76 CALM      30.17R
$$

IDZ016-017-211500-
SOUTHCENTRAL IDAHO


CITY           SKY/WX    TMP DP  RH WIND       PRES   REMARKS
BURLEY         SUNNY     42  26  53 SW9       30.16R
JEROME         SUNNY     47  26  44 SW3       30.17R
TWIN FALLS     SUNNY     47  27  45 S15       30.16R
$$

IDZ019>023-211500-
SOUTHEAST IDAHO


CITY           SKY/WX    TMP DP  RH WIND       PRES   REMARKS
IDAHO FALLS    SUNNY     40  28  62 CALM      30.19R
POCATELLO      SUNNY     45  29  53 E3        30.18R
REXBURG        SUNNY     35  29  78 E5        30.19R WCI  31
$$

IDZ006-010-011-018-031-032-211500-
CENTRAL IDAHO MOUNTAINS


CITY           SKY/WX    TMP DP  RH WIND       PRES   REMARKS
MCCALL         CLOUDY    35  29  78 CALM      30.17R
HAILEY         SUNNY     37  25  60 NW10      30.19R WCI  30
STANLEY          N/A     27  22  81 CALM      30.25R
SALMON         PTSUNNY   36  30  79 CALM      30.20R
CHALLIS        MOSUNNY   43  23  45 S6        30.19R
$$

IDZ002-004-006-007-026-211500-
NORTHERN IDAHO


CITY           SKY/WX    TMP DP  RH WIND       PRES   REMARKS
LEWISTON       CLOUDY    50  45  83 CALM      30.18R
LOWELL           N/A     43  37  79 CALM      30.23R
COEUR D`ALENE  CLOUDY    49  34  56 SW17      30.12R
MULLAN PASS    FLURRIES  32  31  96 VRB6      30.11S WCI  26
$$




USA.gov is the U.S. government's official web portal to all federal, state and local government web resources and services.